Regional Weather Roundup
Issued by NWS

Home | Current Version | Previous Version | Graphics & Text | Print | Product List | Glossary On
Versions: 1 2 3 4 5 6 7 8 9 10 11 12 13 14 15 16 17 18 19 20 21 22 23 24 25 26 27 28 29 30 31 32 33 34 35 36 37 38 39 40 41 42 43 44 45 46 47 48 49 50
000
ASUS43 KMPX 130701
RWRMN
WEATHER ROUNDUP FOR MINNESOTA
NATIONAL WEATHER SERVICE TWIN CITIES/CHANHASSEN MN
200 AM CDT SUN JUL 13 2014


NOTE: "FAIR" INDICATES FEW OR NO CLOUDS BELOW 12,000 FEET WITH NO
SIGNIFICANT WEATHER AND/OR OBSTRUCTIONS TO VISIBILITY. N/A MEANS
CURRENT SKY AND/OR WEATHER CONDITIONS ARE NOT AVAILABLE.

MNZ060>063-068>070-130800-
   Twin Cities Metro

CITY           SKY/WX    TMP DP  RH WIND       PRES   REMARKS
TWIN CITIES    CLEAR     67  65  93 SW7       29.90F
ST PAUL        PTCLDY    67  64  90 CALM      29.89F
CRYSTAL        CLEAR     67  62  84 W5        29.88F
BLAINE         CLEAR     66  64  94 SW3       29.89F
LAKEVILLE      CLEAR     64  63  94 SW5       29.91F
EDEN PRAIRIE   CLEAR     66  64  93 SW6       29.89F
SOUTH ST PAUL  PTCLDY    67  64  90 SW6       29.90S
LAKE ELMO      FAIR      63  63 100 CALM      29.91S FOG
$$
MNZ001>005-007-008-013>017-022>024-027-028-130800-
   Northwest Minnesota

CITY           SKY/WX    TMP DP  RH WIND       PRES   REMARKS
BEMIDJI        CLEAR     50  49  98 W5        29.93F
HALLOCK        LGT RAIN  57  55  94 W13       29.92S
ROSEAU         PTCLDY    54  48  82 SW6       29.91S
WARROAD        CLEAR     52  46  82 SW6       29.90S
THIEF RVR FALL CLOUDY    55  54  94 W3        29.94F VSB 1/4
CROOKSTON      MOCLDY    52  52 100 W5        29.96S FOG
FOSSTON        CLEAR     52  52 100 CALM      29.96S FOG
MOORHEAD       CLEAR     59  57  94 NW5       29.99S
PARK RAPIDS    CLEAR     54  53  97 NW6       29.95R
$$
MNZ006-009>011-018-025>026-130800-
   North Central Minnesota

CITY           SKY/WX    TMP DP  RH WIND       PRES   REMARKS
BAUDETTE       CLEAR     49  47  93 VRB3      29.90S
FLAG ISLAND    CLEAR     54  46  76 W13       29.85F
INTL FALLS     CLEAR     49  47  93 W6        29.87F
WASKISH        CLEAR     57  46  67 W5        29.91S
LONGVILLE      PTCLDY    57  52  82 CALM      29.93S
GRAND RAPIDS   CLEAR     55  50  82 NW9       29.92R
CRANE LAKE     CLEAR     48  46  93 CALM      29.88S FOG
ORR            PTCLDY    54  48  82 NW8       29.87R
COOK           PTCLDY    54  52  94 W6        29.89S
$$
MNZ012-019>021-037-130800-
   Northeast Minnesota

CITY           SKY/WX    TMP DP  RH WIND       PRES   REMARKS
DULUTH         PTCLDY    58  52  80 NW13      29.87R
ELY            PTCLDY    54  52  94 NW7       29.85S
HIBBING        CLEAR     55  51  86 NW6       29.89R
EVELETH        MOCLDY    54  52  94 NW7       29.88S
DULUTH HARBOR  PTCLDY    64  55  72 W13       29.86R
TWO HARBORS    PTCLDY    57  50  77 NW6       29.82S
SILVER BAY     MOCLDY    55  54  94 W6        29.81R
GRAND MARAIS     N/A     60  52  74 VRB7      29.75F
G MARAIS ARPRT CLOUDY    54  46  76 W9        29.81S
$$
MNZ029>031-032-039>041-046>048-054>057-064-130800-
   West Central Minnesota

CITY           SKY/WX    TMP DP  RH WIND       PRES   REMARKS
FERGUS FALLS   PTCLDY    61  52  72 NW8       29.98R
WHEATON        CLEAR     57  54  88 W5        30.00S
MORRIS         CLEAR     61  55  82 N6        29.96R
ALEXANDRIA     PTCLDY    62  54  74 N6        29.97S
ELBOW LAKE     FAIR      61  54  77 CALM      29.96S
WADENA         PTCLDY    59  54  82 NW6       29.96R
GLENWOOD       CLEAR     61  54  77 N6        29.96S
APPLETON       CLEAR     66  61  82 NW8       29.95S
BENSON         CLEAR     64  61  88 N8        29.95S
ORTONVILLE     CLEAR     64  54  68 N6        29.97S
MADISON        PTCLDY    70  63  78 NW8       29.96S
WILLMAR        FAIR      66  63  88 W9        29.95S
$$
MNZ033>034-036-042>043-049>051-058-059-130800-
   Central Minnesota

CITY           SKY/WX    TMP DP  RH WIND       PRES   REMARKS
ST CLOUD       CLEAR     66  61  84 NW8       29.91R
SAUK CENTRE    FAIR      60  54  81 N3        29.95S
PAYNESVILLE    CLEAR     61  60  96 W6        29.94R
AITKIN         MOCLDY    61  54  77 CALM      29.91R
PINE RIVER       N/A     57  54  88 NW5       29.97R
BRAINERD       MOCLDY    67  53  61 NW15      29.94R
STAPLES        PTCLDY    59  54  82 NW8       29.95R
LONG PRAIRIE   FAIR      59  52  77 CALM      29.95S
LITTLE FALLS   PTCLDY    61  54  77 CALM      29.93S
LITCHFIELD     CLEAR     68  66  94 W5        29.93S
BUFFALO        CLEAR     66  62  88 CALM      29.91F
MAPLE LAKE     CLEAR     67  64  93 W3        29.91F
$$
MNZ037-044-045-052-053-130800-
   East Central Minnesota

CITY           SKY/WX    TMP DP  RH WIND       PRES   REMARKS
PRINCETON      CLEAR     64  61  88 N5        29.91R
MORA           PTCLDY    59  52  77 CALM      29.92F
CAMBRIDGE      PTCLDY    66  55  68 CALM      29.89R
RUSH CITY      PTCLDY    62  56  80 CALM      29.90F
MOOSE LAKE     LGT RAIN  57  55  94 CALM      29.87F
HINCKLEY       CLOUDY    61  55  82 CALM      29.90S
CLOQUET        PTCLDY    57  54  88 W7        29.89R
MCGREGOR       MOCLDY    57  55  94 NW6       29.92S
$$
MNZ071>073-080-081-089-090-097-098-130800-
   Southwest Minnesota

CITY           SKY/WX    TMP DP  RH WIND       PRES   REMARKS
MONTEVIDEO     PTCLDY    66  64  94 NW6       29.96S
GRANITE FALLS  PTCLDY    66  63  88 W8        29.96F
CANBY          MOCLDY    69  64  84 W12       29.98F
MARSHALL       MOCLDY    68  63  83 W10       29.95F
REDWOOD FALLS  PTCLDY    69  64  84 W10       29.93F
OLIVIA         PTCLDY    68  63  83 W8        29.93F
PIPESTONE      PTCLDY    66  64  94 W6        30.01F
WINDOM         CLEAR     64  63  94 W5        29.98F
WORTHINGTON    CLEAR     64  63  94 W6        30.01F
JACKSON        CLEAR     64  63  94 W6        30.00R
TRACY          PTCLDY    69  64  85 W5        29.97F
SLAYTON        CLEAR     67  64  91 CALM      30.01S
$$
MNZ065>067-074>077-082>085-091>093-130800-
   South Central Minnesota

CITY           SKY/WX    TMP DP  RH WIND       PRES   REMARKS
MANKATO        CLEAR     64  61  88 W7        29.94S
NEW ULM        CLEAR     64  64 100 W6        29.94S
ST JAMES       CLEAR     66  63  88 SW5       29.96S
FAIRMONT       CLEAR     64  61  88 W6        29.97S
GLENCOE        CLEAR     67  63  84 SW6       29.91F
FARIBAULT      CLEAR     68  63  83 S3        29.93F
OWATONNA       CLEAR     64  63  94 SW3       29.94F
WASECA         FOG       61  57  88 SW5       29.96S VSB 1/2
ALBERT LEA     CLEAR     64  63  94 CALM      29.96S
$$
MNZ078>079-086>088-094>096-130800-
   Southeast Minnesota

CITY           SKY/WX    TMP DP  RH WIND       PRES   REMARKS
ROCHESTER      CLEAR     64  61  90 W7        29.96S
RED WING       CLEAR     63  61  94 CALM      29.89F FOG
STANTON        CLEAR     64  62  92 SW3       29.91S
DODGE CENTER   CLEAR     63  63 100 W6        29.95S FOG
WINONA         CLEAR     63  63 100 CALM      29.92R
AUSTIN         FOG       61  61 100 CALM      29.95S VSB 1/2
PRESTON        PTCLDY    63  63  99 W8        29.95S
$$
ABBREVIATIONS USED IN REMARKS
   TC - TEMPERATURES IN CELSIUS
  WCI - WIND CHILL INDEX
   HX - HEAT INDEX
  VSB - VISIBILITY
$$



USA.gov is the U.S. government's official web portal to all federal, state and local government web resources and services.